Location: Unspecified
(51.0000°N, 12.0000°E)
Time: 19:12:24
(UTC+01:00)

ISS - Pass Details

Date: 09 January 2018
Orbit: 402 x 407 km, 51.6° (Epoch: 17 January)

Event Time Altitude Azimuth Distance (km) Brightness Sun altitude
Exits shadow 05:49:07 62° 92° (E) 463 -3.4 -21.6°
Drops below altitude 10° 05:51:55 10° 99° (E) 1,468 0.2 -21.2°
Sets 05:54:00 0° 100° (E) 2,328 1.6 -20.9°
